Temp
9 10 10 10 11 10 10 10 10 10 10 10 10 10 10 10 10 10 10 11 11 11 12 12 12 12 12 12 14 16 16 16 17 17 17 17 18 20 18 20 21 21 22 23 23 22 22
8 8 8 8 10 10 11 10 10 10 10 10 10 10 10 10 10 10 10 10 11 11 11 11 11 11 11 10 16 16 15 16 16 16 16 17 19 19 20 20 19 22 22 21 22 22 22
8 7 7 7 8 8 8 9 10 10 10 9 10 10 10 10 10 10 10 10 10 10 11 11 11 11 10 14 16 15 14 15 15 15 16 17 18 18 19 17 20 21 19 18 19 21 21
6 7 7 6 6 7 8 9 8 7 8 8 6 6 6 8 8 9 9 9 9 10 10 10 11 10 9 15 15 16 15 15 15 15 16 16 17 17 17 18 18 19 18 16 18 19 20
5 5 5 6 6 6 6 8 8 8 8 7 7 6 6 7 7 8 8 8 8 9 10 10 10 9 9 13 14 15 14 15 15 15 15 16 16 16 17 15 14 16 14 16 18 20 17
5 5 5 5 5 6 6 5 7 7 7 8 7 6 6 6 7 7 8 7 8 9 9 8 9 8 11 15 15 15 14 14 15 15 15 15 16 13 13 13 12 14 15 15 16 19 18
4 4 5 4 5 5 5 6 6 6 6 6 8 7 5 5 6 7 7 8 8 8 7 9 10 12 14 15 15 14 14 14 14 15 13 15 12 11 14 15 16 17 17 17 18 20 18
3 3 4 4 4 4 5 5 5 5 5 5 5 5 5 5 5 6 6 7 7 7 7 8 10 10 12 14 13 14 14 14 14 13 14 13 12 15 17 17 17 17 17 17 18 20 19
3 3 3 4 4 4 5 5 4 5 5 5 5 5 4 4 4 4 5 7 6 6 6 8 10 11 12 12 12 14 14 14 14 13 14 13 15 17 17 17 17 18 17 18 18 19 19
2 2 2 3 3 4 4 4 4 4 4 5 5 4 4 4 3 4 4 5 5 6 4 8 12 12 11 12 13 14 15 15 14 14 14 14 16 16 17 16 18 16 19 19 19 17 15
1 1 2 2 3 3 3 3 4 4 5 5 5 4 4 3 3 4 5 5 5 6 6 14 14 14 14 13 15 14 15 14 14 14 15 14 16 15 16 17 18 17 19 18 18 16 16
1 1 1 2 2 2 3 3 3 4 4 4 4 4 4 3 3 4 4 4 4 4 6 12 14 13 14 13 14 15 14 15 15 15 15 15 18 17 17 18 18 19 17 16 15 14 9
-0 0 1 1 1 2 2 2 2 2 3 3 3 4 4 4 3 3 4 3 3 5 12 13 14 14 13 14 13 14 14 13 12 12 12 14 15 17 18 16 17 17 13 8 10 9 11
-1 -1 -0 0 1 1 1 1 2 2 2 2 3 3 3 4 4 3 3 2 3 8 11 15 16 14 12 14 14 14 13 12 13 13 13 12 12 15 17 16 16 16 15 10 11 10 12
-2 -1 -1 -1 0 1 1 1 1 1 1 1 2 2 3 3 3 2 2 3 5 8 12 12 13 12 12 13 14 13 12 12 14 14 13 12 13 16 17 16 16 14 13 15 13 13 8
-2 -2 -1 -1 -1 -0 0 0 0 0 0 1 1 1 2 3 3 2 2 3 5 8 10 10 9 12 12 13 13 13 12 13 14 14 15 14 12 15 17 17 16 15 15 13 10 11 11
-1 -1 -1 -1 -1 -1 -1 -0 -0 0 -0 -0 0 0 2 2 2 1 3 3 5 7 9 10 9 9 10 11 13 13 13 14 14 14 14 14 12 12 15 15 15 14 14 14 13 11 10
-2 -2 -1 -1 -1 -1 -1 -1 -1 -0 -0 -0 -1 -5 1 2 2 -0 2 3 6 7 7 8 8 8 9 10 10 11 12 14 11 12 13 14 12 11 12 16 16 15 15 14 10 10 8
-2 -2 -2 -1 -1 -2 -2 -1 -1 -1 -1 -1 -1 -1 0 1 -0 2 2 4 5 7 7 8 7 8 8 7 8 10 11 9 8 9 7 9 10 9 12 14 14 14 14 14 13 10 10
-2 -2 -2 -2 -2 -2 -2 -2 -1 -1 -1 -1 -1 -3 -1 -0 0 1 2 2 4 6 6 7 6 7 7 6 9 9 6 7 6 6 6 7 10 11 11 12 13 12 14 14 12 9 10
-2 -2 -2 -2 -2 -2 -3 -2 -2 -2 -2 -2 -2 -3 -0 -4 -0 0 2 3 3 5 7 7 4 5 6 5 7 7 5 5 6 5 4 5 6 6 10 11 11 10 11 12 11 10 9
-2 -3 -3 -3 -3 -3 -3 -3 -2 -2 -2 -2 -2 -2 -1 -0 1 1 1 2 3 4 7 6 4 5 6 6 7 6 4 4 5 7 5 5 5 4 5 9 10 8 10 10 10 10 10
-2 -2 -2 -2 -2 -3 -3 -3 -3 -2 -2 -3 -2 -2 -2 -0 -0 0 1 3 3 4 5 7 7 6 6 6 7 7 6 5 6 5 6 6 5 5 6 8 8 7 9 9 10 10 10
-2 -2 -2 -2 -2 -2 -3 -3 -3 -2 -2 -3 -2 -2 -2 -2 -2 -1 2 3 3 3 3 6 8 6 7 8 7 6 6 6 6 6 7 5 5 5 5 6 5 8 10 10 10 10 10
-2 -2 -2 -2 -3 -4 -3 -3 -3 -2 -2 -3 -3 -3 -2 -2 -1 1 2 2 3 4 5 6 6 6 7 6 4 2 2 3 4 6 6 6 5 3 3 4 7 8 9 9 8 9 10
-2 -3 -3 -3 -4 -4 -3 -3 -3 -2 -2 -3 -3 -2 -3 -2 -2 0 0 -1 1 2 4 2 4 6 6 2 3 3 3 4 5 7 7 6 5 3 2 3 5 6 10 11 9 6 8
-3 -3 -2 -3 -3 -3 -3 -3 -3 -3 -3 -3 -3 -3 -3 -3 -1 -1 -1 1 2 3 2 3 3 4 6 1 0 1 3 6 4 5 6 3 3 4 4 4 4 6 9 10 7 5 10
-3 -3 -3 -3 -3 -3 -3 -3 -3 -3 -3 -4 -3 -3 -3 -2 -2 -1 -1 -1 3 2 3 3 2 3 1 1 2 1 2 4 4 3 6 4 4 4 4 4 4 8 9 8 6 8 9
-2 -3 -3 -3 -3 -3 -3 -4 -4 -4 -3 -3 -3 -2 -3 -2 -1 -1 -0 -1 1 3 3 3 4 4 4 3 2 1 2 1 4 3 6 3 3 3 4 3 5 8 8 9 9 8 8
Height
1491 1493 1496 1499 1501 1502 1505 1507 1511 1515 1517 1519 1520 1521 1522 1524 1524 1524 1526 1525 1526 1526 1525 1524 1522 1521 1520 1517 1509 1511 1508 1509 1509 1509 1509 1509 1509 1507 1508 1502 1498 1498 1497 1497 1498 1498 1502
1486 1488 1490 1492 1495 1497 1500 1503 1504 1508 1512 1514 1515 1515 1517 1517 1518 1520 1521 1522 1523 1523 1522 1521 1520 1518 1518 1517 1506 1507 1506 1506 1507 1507 1506 1506 1508 1506 1505 1500 1500 1495 1497 1498 1499 1497 1499
1481 1483 1484 1489 1491 1492 1494 1496 1496 1500 1503 1504 1506 1505 1508 1510 1511 1513 1516 1518 1519 1520 1519 1519 1517 1515 1512 1506 1506 1504 1502 1504 1505 1505 1504 1506 1508 1507 1504 1501 1498 1494 1497 1498 1497 1498 1498
1477 1479 1480 1485 1487 1488 1491 1491 1495 1497 1493 1495 1499 1504 1505 1506 1507 1508 1510 1513 1514 1516 1516 1515 1514 1513 1504 1500 1500 1500 1499 1500 1503 1503 1502 1503 1504 1504 1504 1503 1500 1499 1499 1511 1495 1494 1496
1473 1476 1477 1478 1483 1486 1487 1490 1489 1493 1495 1494 1496 1499 1504 1504 1507 1507 1508 1508 1511 1510 1512 1512 1512 1511 1500 1494 1495 1493 1496 1497 1500 1500 1502 1501 1503 1504 1504 1506 1511 1501 1511 1506 1497 1486 1492
1469 1473 1474 1476 1480 1482 1484 1488 1486 1484 1487 1490 1491 1493 1501 1502 1504 1506 1508 1507 1508 1507 1508 1511 1508 1513 1495 1491 1491 1491 1491 1494 1498 1499 1501 1501 1501 1502 1503 1505 1517 1509 1505 1501 1501 1487 1487
1465 1468 1470 1473 1473 1479 1482 1483 1485 1482 1486 1487 1485 1489 1494 1496 1501 1505 1506 1509 1510 1506 1504 1502 1496 1492 1489 1488 1490 1491 1491 1493 1493 1499 1500 1495 1502 1502 1491 1492 1493 1492 1492 1494 1485 1478 1484
1462 1464 1467 1468 1471 1474 1479 1480 1479 1483 1482 1483 1485 1487 1492 1494 1497 1497 1501 1505 1507 1510 1502 1497 1490 1485 1487 1485 1488 1488 1491 1493 1492 1494 1495 1499 1492 1485 1487 1488 1490 1489 1489 1491 1481 1478 1482
1459 1461 1462 1465 1467 1470 1473 1475 1476 1478 1478 1479 1483 1485 1490 1494 1492 1495 1496 1502 1505 1505 1504 1486 1475 1470 1476 1483 1481 1481 1486 1486 1486 1489 1489 1489 1479 1482 1481 1481 1485 1482 1485 1486 1485 1476 1478
1455 1458 1459 1462 1464 1467 1469 1472 1471 1473 1473 1475 1480 1484 1486 1491 1495 1493 1495 1498 1504 1504 1507 1479 1466 1460 1463 1475 1470 1474 1478 1482 1482 1482 1484 1481 1477 1476 1477 1477 1476 1483 1470 1473 1477 1486 1498
1452 1455 1457 1459 1461 1464 1465 1466 1468 1467 1468 1471 1476 1480 1482 1488 1490 1491 1495 1497 1503 1504 1505 1462 1458 1459 1455 1466 1462 1461 1465 1475 1473 1472 1475 1469 1466 1469 1472 1467 1468 1473 1468 1473 1475 1484 1486
1450 1452 1455 1456 1458 1460 1460 1462 1463 1465 1466 1469 1472 1476 1479 1483 1486 1490 1491 1494 1503 1505 1491 1462 1450 1455 1452 1460 1458 1459 1463 1471 1473 1472 1464 1462 1460 1459 1460 1460 1461 1465 1472 1475 1480 1489 1510
1448 1450 1453 1453 1454 1455 1457 1457 1458 1462 1463 1466 1470 1472 1476 1478 1482 1487 1492 1495 1505 1489 1454 1448 1442 1448 1452 1448 1455 1459 1466 1468 1468 1475 1469 1462 1455 1452 1456 1460 1458 1463 1479 1512 1513 1515 1499
1445 1447 1450 1450 1451 1452 1455 1455 1456 1458 1458 1462 1465 1469 1471 1473 1480 1486 1489 1494 1491 1460 1450 1435 1434 1440 1450 1447 1444 1450 1463 1469 1461 1456 1458 1465 1465 1453 1446 1452 1460 1460 1466 1489 1498 1504 1488
1443 1445 1445 1447 1450 1449 1452 1452 1454 1455 1457 1460 1463 1464 1469 1469 1474 1480 1483 1479 1468 1455 1443 1446 1441 1441 1444 1442 1440 1449 1457 1453 1446 1444 1450 1453 1450 1435 1437 1442 1451 1459 1463 1458 1472 1471 1497
1441 1441 1443 1445 1445 1447 1448 1450 1453 1453 1455 1456 1459 1462 1464 1466 1469 1474 1474 1466 1460 1452 1443 1450 1451 1437 1436 1435 1439 1441 1447 1439 1439 1436 1437 1437 1449 1430 1428 1437 1439 1446 1450 1472 1479 1484 1483
1437 1438 1440 1442 1444 1446 1448 1449 1451 1452 1453 1456 1457 1459 1459 1462 1468 1469 1462 1460 1455 1445 1452 1449 1452 1447 1441 1440 1432 1427 1432 1434 1429 1428 1433 1436 1446 1440 1430 1425 1430 1443 1450 1452 1460 1468 1477
1435 1436 1438 1440 1442 1445 1446 1447 1448 1450 1453 1455 1456 1461 1458 1460 1465 1459 1458 1458 1452 1441 1451 1453 1453 1447 1446 1443 1438 1434 1432 1432 1435 1431 1423 1424 1438 1444 1437 1420 1420 1425 1431 1442 1463 1466 1471
1431 1432 1435 1437 1440 1441 1443 1443 1445 1448 1451 1453 1456 1458 1459 1460 1461 1454 1453 1451 1450 1443 1447 1451 1453 1448 1447 1449 1446 1432 1427 1434 1439 1438 1439 1435 1433 1445 1437 1428 1420 1422 1425 1428 1438 1451 1455
1427 1428 1431 1433 1436 1437 1439 1441 1443 1445 1448 1451 1455 1456 1454 1454 1452 1453 1450 1448 1446 1445 1446 1450 1452 1448 1447 1449 1442 1436 1441 1442 1446 1441 1434 1439 1428 1421 1428 1423 1418 1425 1423 1427 1433 1449 1446
1423 1424 1427 1429 1432 1434 1435 1437 1440 1442 1445 1449 1452 1451 1448 1454 1450 1449 1447 1444 1443 1437 1437 1442 1451 1443 1440 1450 1442 1439 1447 1449 1445 1445 1446 1449 1442 1439 1424 1424 1426 1435 1429 1430 1438 1442 1451
1418 1421 1423 1426 1427 1428 1430 1434 1436 1439 1443 1445 1446 1448 1448 1444 1443 1443 1444 1438 1436 1433 1429 1434 1441 1437 1439 1441 1438 1441 1446 1449 1445 1442 1447 1448 1445 1447 1443 1430 1431 1443 1441 1440 1441 1440 1446
1415 1417 1419 1420 1421 1423 1426 1429 1432 1435 1438 1438 1440 1444 1446 1439 1439 1438 1431 1429 1420 1428 1427 1426 1430 1434 1433 1433 1435 1437 1439 1441 1443 1443 1443 1444 1447 1445 1441 1428 1427 1439 1441 1440 1438 1437 1438
1411 1413 1414 1415 1416 1418 1421 1424 1427 1430 1433 1434 1437 1441 1443 1434 1439 1429 1429 1426 1422 1420 1425 1420 1422 1426 1424 1431 1433 1440 1441 1441 1440 1438 1439 1442 1446 1445 1444 1441 1450 1433 1425 1425 1425 1425 1429
1406 1407 1409 1410 1411 1413 1416 1418 1421 1424 1427 1428 1431 1435 1436 1429 1427 1420 1418 1417 1414 1414 1415 1417 1417 1418 1427 1429 1436 1445 1446 1439 1434 1432 1435 1437 1444 1453 1458 1450 1437 1430 1424 1423 1427 1424 1422
1401 1403 1404 1405 1406 1407 1409 1410 1413 1416 1419 1422 1423 1428 1430 1428 1412 1419 1420 1416 1410 1409 1412 1413 1416 1411 1420 1428 1434 1440 1443 1436 1434 1426 1422 1430 1438 1452 1457 1454 1442 1423 1418 1418 1422 1430 1418
1396 1397 1399 1399 1401 1401 1401 1403 1404 1406 1410 1414 1413 1420 1422 1418 1403 1415 1409 1405 1402 1404 1403 1405 1411 1408 1412 1422 1438 1444 1441 1430 1437 1432 1428 1437 1443 1441 1442 1443 1438 1424 1422 1420 1431 1435 1417
1389 1392 1393 1393 1395 1395 1395 1395 1394 1395 1398 1404 1401 1408 1413 1408 1401 1404 1401 1399 1388 1392 1396 1400 1405 1405 1412 1420 1426 1435 1436 1428 1430 1427 1421 1430 1436 1437 1438 1440 1439 1420 1420 1423 1424 1419 1417
1386 1387 1388 1390 1390 1389 1387 1384 1381 1380 1382 1389 1392 1396 1404 1404 1387 1390 1386 1383 1385 1385 1392 1395 1396 1397 1401 1409 1418 1424 1430 1427 1424 1433 1417 1432 1426 1434 1431 1431 1417 1415 1416 1415 1415 1415 1416
Wind_Speed
24 32 31 34 34 33 34 32 32 32 29 28 27 25 24 25 25 27 25 23 23 21 22 24 23 21 19 9 21 17 17 18 14 9 6 13 18 13 7 10 12 5 4 14 7 12 7
15 12 12 14 24 23 34 37 34 36 32 31 32 29 27 30 28 27 27 25 25 23 23 23 22 19 16 10 2 7 15 14 11 8 7 9 9 16 11 9 4 9 5 9 3 7 7
18 18 18 21 20 14 13 12 20 29 32 31 32 32 32 30 30 30 30 25 26 23 21 21 21 19 16 32 16 13 8 13 9 7 10 12 14 11 10 8 11 13 3 7 12 11 4
22 21 20 20 20 22 26 15 13 4 15 17 9 11 6 9 19 29 28 24 24 21 19 19 18 15 14 23 16 18 19 15 18 9 15 15 9 8 8 13 12 3 4 4 7 14 7
15 15 15 15 15 13 13 18 21 25 16 18 10 14 11 12 12 16 13 17 18 18 17 15 14 10 16 10 14 12 17 15 13 12 11 8 9 7 8 3 5 5 4 8 12 16 8
15 14 14 13 11 12 14 14 14 17 28 27 27 20 9 6 9 9 12 11 10 10 13 11 13 8 18 22 8 8 7 16 14 11 10 12 4 3 4 5 7 6 8 7 9 3 8
15 14 15 14 12 13 17 19 16 10 9 10 17 21 8 9 9 4 9 8 4 3 5 13 8 13 9 6 8 9 8 11 14 15 7 14 4 9 19 14 8 9 11 7 6 8 9
12 12 12 12 12 16 16 17 15 17 12 10 9 10 12 12 13 12 7 4 4 5 13 20 27 34 32 21 11 13 12 13 14 13 10 6 16 17 12 11 14 17 18 12 9 4 5
13 13 12 12 13 13 15 19 18 19 21 14 11 10 10 10 11 13 14 13 5 9 7 14 30 33 40 34 24 20 22 22 9 11 13 16 8 18 16 16 18 16 17 10 9 7 2
11 9 9 11 11 11 12 13 14 18 19 18 13 14 13 11 9 11 15 11 3 5 3 7 7 10 24 29 13 36 26 16 7 15 15 13 20 23 18 19 15 12 5 6 5 5 8
11 10 10 9 10 11 11 9 10 10 14 18 18 15 16 15 6 7 6 16 6 7 3 3 4 3 1 23 8 21 42 30 16 11 11 9 12 16 22 8 17 9 2 1 1 3 2
10 8 8 9 10 9 7 8 8 7 9 11 15 13 19 17 17 5 8 18 11 2 8 7 8 5 7 29 14 5 22 28 16 12 15 13 21 9 21 12 11 3 3 4 4 3 5
11 11 10 9 7 7 6 7 7 5 7 10 11 11 20 19 23 12 14 21 3 5 6 8 8 9 11 12 21 12 5 19 13 9 17 14 21 21 10 5 6 7 7 1 2 1 8
10 10 10 11 11 10 10 7 4 8 6 7 12 17 21 31 21 19 24 2 7 12 17 8 5 13 13 12 15 18 11 17 22 12 3 13 11 17 10 13 6 10 11 6 7 5 4
9 7 6 5 6 6 8 7 6 5 7 10 8 14 17 28 27 27 17 8 9 7 6 7 17 15 17 15 9 17 23 23 18 26 14 9 14 8 21 6 11 5 14 9 4 1 2
9 8 7 6 5 4 2 4 5 4 6 6 7 7 20 15 28 31 8 10 7 13 9 7 6 5 10 18 18 15 14 18 23 18 21 4 5 12 12 12 19 10 4 6 4 5 8
8 8 7 6 5 3 2 2 2 4 3 5 4 3 6 19 25 17 7 8 12 24 15 3 7 9 7 11 12 20 15 13 21 18 14 23 10 6 8 21 23 13 14 5 7 7 5
10 8 7 6 6 5 4 3 2 2 2 1 2 1 3 10 14 4 8 5 21 20 18 8 4 8 8 13 14 12 16 16 19 10 19 23 10 15 18 6 16 16 21 13 6 10 5
12 10 8 7 7 6 5 4 4 4 4 4 3 5 7 9 4 8 3 17 12 7 19 9 5 4 7 9 7 7 2 8 23 9 7 8 10 5 11 6 8 17 17 16 11 5 14
13 12 11 9 9 8 6 5 4 6 7 8 2 2 3 14 17 8 10 11 20 36 20 23 7 13 7 10 12 4 6 10 13 14 23 19 5 20 14 2 3 12 13 8 4 7 9
13 12 12 11 11 9 7 7 6 8 9 10 8 5 5 3 7 14 14 8 16 21 23 18 6 13 8 5 11 4 4 5 4 7 8 7 0 10 4 10 9 7 9 6 2 3 5
12 12 12 13 10 8 8 9 9 9 11 15 7 4 5 7 17 12 11 9 24 19 18 23 11 11 12 11 12 3 5 3 2 1 3 1 3 5 6 7 7 4 10 11 8 9 7
14 14 13 12 11 12 11 11 10 12 15 13 15 18 7 8 4 6 12 15 10 16 18 23 20 12 10 8 7 9 8 9 4 1 3 0 1 3 5 10 12 4 10 11 11 12 8
16 15 14 14 15 15 16 17 15 16 21 24 20 12 7 11 8 14 16 16 21 19 21 17 23 21 32 17 5 6 7 6 9 6 5 1 2 3 4 7 5 7 12 17 17 17 14
18 17 17 18 18 19 19 19 20 21 23 27 27 24 10 10 14 20 22 22 27 23 26 26 21 22 19 12 4 2 2 5 5 9 10 8 4 1 1 3 7 10 10 3 9 10 1
21 20 19 20 20 17 19 24 24 25 26 27 29 29 19 12 20 30 20 27 14 14 15 8 7 27 24 3 3 4 3 2 3 4 10 11 9 4 3 3 4 5 4 7 2 5 6
24 23 21 19 19 22 24 23 24 27 28 27 36 31 27 23 39 29 18 16 30 15 3 4 9 4 21 3 3 3 3 4 4 4 4 4 2 11 7 6 5 9 15 19 2 7 8
22 20 20 19 19 19 22 25 31 33 35 31 40 38 34 27 40 31 28 29 18 14 8 10 7 4 2 3 4 4 3 5 4 5 4 4 5 4 5 7 8 2 1 2 5 3 0
16 17 15 16 20 21 25 32 36 38 38 34 39 39 39 30 30 18 37 52 25 22 14 18 3 7 6 4 2 3 2 1 5 2 6 3 6 5 8 6 7 8 10 12 10 7 6
Wind_Direction
223 238 247 248 247 249 246 250 251 254 254 257 257 259 262 266 269 271 269 277 286 295 303 305 310 312 317 301 269 290 294 295 294 284 289 301 301 274 261 281 298 211 234 275 241 144 153
232 228 223 226 227 237 256 249 247 252 249 252 257 254 257 258 261 267 264 275 279 288 299 302 303 305 305 270 336 304 293 297 280 254 254 284 291 306 296 298 319 316 5 328 229 194 191
256 265 269 271 263 255 235 272 272 253 244 242 252 237 243 238 255 260 258 266 274 283 293 298 299 301 284 267 273 224 245 282 256 236 269 257 302 287 308 314 322 326 353 324 286 263 209
260 259 265 275 282 284 283 269 277 228 203 194 121 23 1 282 270 255 251 258 270 278 285 289 291 292 269 292 267 240 244 245 275 237 251 242 288 286 280 289 318 321 345 279 255 231 206
247 253 257 261 280 282 293 272 265 267 271 290 311 6 339 352 342 355 318 276 269 268 276 279 285 290 272 296 261 267 223 235 238 239 240 255 273 255 276 222 311 239 227 239 267 232 158
237 239 253 255 247 280 281 276 268 273 278 285 283 299 323 335 337 346 341 332 303 289 278 276 253 277 259 261 286 242 216 222 225 226 243 238 236 229 227 183 208 219 218 244 246 238 125
236 235 234 239 242 259 240 244 270 287 284 279 273 277 293 307 294 282 335 329 340 344 202 219 227 222 275 281 245 216 207 206 212 230 210 194 181 212 222 221 229 252 259 270 273 199 149
223 225 229 234 239 235 239 238 257 273 261 264 247 234 240 236 242 228 219 234 126 329 290 260 262 253 251 245 282 251 200 199 202 226 194 257 225 222 238 239 225 239 257 266 282 154 140
224 226 227 231 235 236 242 255 262 269 268 246 232 239 240 233 228 234 216 217 170 276 274 276 251 243 240 238 248 237 202 204 202 217 211 218 234 217 227 233 242 234 235 247 235 293 229
206 210 215 224 231 235 237 245 252 251 267 228 228 230 222 228 235 241 241 204 114 174 306 270 225 259 223 221 253 223 226 197 225 213 219 251 235 253 232 233 234 246 223 258 265 275 265
223 222 222 221 226 234 244 255 264 268 252 247 232 215 220 216 184 223 206 174 221 167 308 273 199 184 267 188 150 208 217 209 214 205 192 216 200 223 240 234 226 242 213 102 302 304 306
209 216 221 228 236 247 250 257 259 260 238 249 222 224 223 215 216 203 182 170 156 134 231 260 147 200 155 199 226 331 193 211 230 249 260 245 257 230 235 236 221 266 95 68 33 67 271
216 220 226 227 233 250 260 261 264 259 248 233 264 249 227 220 215 171 156 149 160 211 194 222 196 180 207 189 217 222 224 200 200 194 234 248 251 256 245 239 222 178 113 34 326 285 241
222 223 222 224 232 238 252 268 285 252 252 251 243 248 260 227 212 189 179 171 203 219 216 283 254 181 194 202 210 210 223 233 217 228 174 216 255 222 220 207 199 201 171 174 195 197 242
209 211 214 212 212 222 238 250 269 277 265 249 253 245 240 235 203 185 176 202 203 219 224 275 256 265 215 221 212 201 215 232 217 208 200 193 233 189 213 171 182 210 210 194 311 168 82
213 215 225 234 242 237 211 229 249 289 303 303 268 245 235 233 206 198 226 220 243 238 280 356 336 318 273 212 207 209 199 231 238 224 213 253 299 221 218 189 211 195 153 184 212 216 232
218 218 222 226 237 244 214 204 242 245 320 344 324 280 274 214 213 208 229 212 240 245 259 318 339 303 303 298 284 218 207 234 214 224 207 227 252 281 237 207 203 200 222 207 168 210 184
224 227 227 229 231 233 226 210 212 231 167 317 145 1 191 182 197 213 218 227 233 253 249 280 328 308 274 302 302 289 244 216 10 306 206 217 214 247 250 264 191 196 216 205 185 220 210
232 239 241 239 240 242 242 217 205 211 174 164 221 245 246 204 226 245 247 227 250 284 232 235 226 231 336 325 312 319 112 9 15 22 24 321 208 221 240 244 199 201 208 214 201 141 218
237 240 247 251 258 256 238 241 214 198 188 199 177 295 221 207 237 244 247 239 232 245 255 265 240 245 264 308 290 315 6 16 356 10 10 346 274 215 222 290 145 200 214 209 176 206 225
238 239 249 255 262 254 238 232 231 203 189 202 191 227 239 215 224 231 237 241 247 233 226 232 226 241 213 199 294 209 37 355 326 359 11 338 309 341 359 21 48 52 275 298 212 212 195
237 238 249 260 259 246 242 244 229 213 199 216 191 191 239 263 257 239 245 244 236 251 222 221 207 217 219 236 230 96 152 194 213 47 107 310 330 8 328 322 37 340 296 273 288 278 242
238 242 254 260 260 254 245 246 235 218 214 224 232 241 267 259 292 239 221 236 238 233 242 228 232 215 227 205 227 165 160 162 230 291 338 15 306 56 290 338 344 246 225 253 241 243 247
241 250 258 265 267 259 247 246 242 229 225 232 233 230 224 256 239 253 249 260 240 228 238 246 236 212 218 210 112 99 140 170 208 227 217 176 53 34 294 356 281 298 283 254 250 249 249
249 257 262 270 266 257 250 247 243 239 234 240 242 227 228 258 250 262 259 252 261 251 238 233 246 258 249 160 117 98 324 360 244 218 215 198 149 218 189 250 304 301 275 261 246 260 210
256 261 265 273 266 256 250 252 252 251 243 239 245 232 231 255 250 259 267 280 266 245 236 251 205 216 161 116 90 158 180 228 291 270 219 213 195 155 153 195 281 273 319 310 31 278 236
247 257 268 265 263 260 261 262 263 261 255 246 246 237 232 245 258 260 266 262 254 222 164 138 153 212 154 130 119 141 189 213 218 218 187 137 124 221 229 231 266 247 255 278 214 256 283
228 257 261 260 264 267 269 272 274 267 260 256 247 237 225 239 258 254 257 249 182 178 189 168 187 164 78 107 137 188 180 213 176 245 121 150 174 203 225 220 248 9 72 216 217 13 357
241 250 254 264 269 278 279 282 276 269 259 241 230 229 226 228 250 257 266 250 232 191 164 168 170 158 160 118 166 129 200 144 182 241 188 233 171 184 184 209 232 232 207 266 231 201 198